Location: Bílinka
(49.3579°N, 14.3767°E)
Time: 09:04:40
(UTC+00:00)

FENGYUN 1C DEB - Pass Details

Date: 21 February 2024
Orbit: 850 x 890 km, 98.8° (Epoch: 12 April)

Event Time Altitude Azimuth Distance (km) Brightness Sun altitude
Rises 17:24:10 0° 150° (SSE) 3,405 ? -9.3°
Reaches altitude 10° 17:26:33 10° 146° (SE) 2,475 ? -9.7°
Maximum altitude 17:31:55 58° 69° (ENE) 997 ? -10.5°
Drops below altitude 10° 17:37:21 10° 352° (N) 2,508 ? -11.4°
Sets 17:39:46 0° 348° (NNW) 3,455 ? -11.8°
